TimeEST,TemperatureF,Dew PointF,Humidity,Sea Level PressureIn,VisibilityMPH,Wind Direction,Wind SpeedMPH,Gust SpeedMPH,PrecipitationIn,Events,Conditions,WindDirDegrees,DateUTC
12:53 AM,60.1,-9999,N/A,30.14,10.0,NNW,13.8,-,N/A,,Unknown,330,2012-12-30 05:53:00
1:53 AM,57.9,52.0,81,30.15,10.0,NW,13.8,20.7,N/A,,Partly Cloudy,320,2012-12-30 06:53:00
2:53 AM,55.9,51.1,84,30.16,10.0,NW,10.4,-,N/A,,Clear,320,2012-12-30 07:53:00
3:53 AM,55.0,51.1,86,30.17,10.0,NNW,8.1,-,N/A,,Clear,330,2012-12-30 08:53:00
4:53 AM,54.0,50.0,86,30.18,10.0,NNW,6.9,-,N/A,,Clear,330,2012-12-30 09:53:00
5:53 AM,54.0,50.0,86,30.19,10.0,North,9.2,-,N/A,,Clear,350,2012-12-30 10:53:00
6:53 AM,53.1,46.9,80,30.22,10.0,North,12.7,20.7,N/A,,Clear,350,2012-12-30 11:53:00
7:53 AM,52.0,45.0,77,30.24,10.0,NNW,12.7,-,N/A,,Clear,340,2012-12-30 12:53:00
8:53 AM,54.0,46.0,75,30.26,10.0,North,11.5,-,N/A,,Clear,350,2012-12-30 13:53:00
9:53 AM,57.9,46.9,67,30.28,10.0,North,12.7,-,N/A,,Clear,10,2012-12-30 14:53:00
10:53 AM,60.1,46.9,62,30.28,10.0,NNW,11.5,-,N/A,,Clear,340,2012-12-30 15:53:00
11:53 AM,63.0,48.9,60,30.27,10.0,North,9.2,-,N/A,,Clear,360,2012-12-30 16:53:00
12:53 PM,68.0,50.0,52,30.24,10.0,NNE,13.8,-,N/A,,Clear,30,2012-12-30 17:53:00
1:53 PM,69.1,52.0,54,30.23,10.0,NNE,13.8,23.0,N/A,,Mostly Cloudy,20,2012-12-30 18:53:00
2:53 PM,70.0,53.1,55,30.22,10.0,NNE,16.1,24.2,N/A,,Mostly Cloudy,30,2012-12-30 19:53:00
3:53 PM,69.1,54.0,58,30.23,10.0,NNE,13.8,24.2,N/A,,Overcast,20,2012-12-30 20:53:00
4:53 PM,69.1,54.0,58,30.24,10.0,NNE,17.3,25.3,N/A,,Overcast,30,2012-12-30 21:53:00
5:53 PM,66.9,53.1,61,30.25,10.0,NE,10.4,20.7,N/A,,Mostly Cloudy,40,2012-12-30 22:53:00
6:53 PM,66.9,52.0,59,30.27,10.0,NE,13.8,20.7,N/A,,Mostly Cloudy,50,2012-12-30 23:53:00
7:53 PM,68.0,53.1,59,30.27,10.0,NE,11.5,-,N/A,,Overcast,50,2012-12-31 00:53:00
8:53 PM,68.0,53.1,59,30.28,10.0,NE,11.5,-,N/A,,Overcast,50,2012-12-31 01:53:00
9:53 PM,66.0,53.1,63,30.29,10.0,ENE,15.0,-,N/A,,Mostly Cloudy,70,2012-12-31 02:53:00
10:53 PM,66.9,53.1,61,30.29,10.0,ENE,12.7,-,N/A,,Mostly Cloudy,70,2012-12-31 03:53:00
11:53 PM,66.0,53.1,63,30.28,10.0,East,10.4,-,N/A,,Mostly Cloudy,80,2012-12-31 04:53:00